User: anonymous   Login
Location: Mt. Chestnut Observatory
(40.9038°N, 79.9956°W)
Time: 02:55:23
(UTC-04:00)
Language:

Cosmos 2034 Rocket - Orbit

View from above orbital plane
View from above orbital plane
View from above satellite
View from above satellite

Ground track
Ground track

The orbit data is extracted from the following two-line orbital elements,

1 20150U 89059B   14301.48912769  .00000044  00000-0  29674-4 0   636
2 20150 082.9385 088.2659 0030195 091.5734 327.1650 13.75582629268031
Epoch (UTC): 28 October 2014 11:44:20
Eccentricity: 0.0030195
inclination: 82.9385°
perigee height: 957 km
apogee height: 1002 km
right ascension of ascending node: 88.2659°
argument of perigee: 91.5734°
revolutions per day: 13.75582629
mean anomaly at epoch: 327.1650°
orbit number at epoch: 26803

The dashed part of the orbit path shows where the satellite is in the earth's shadow,  

DLR